Regional Weather Roundup
Issued by NWS

Home | Current Version | Previous Version | Graphics & Text | Print | Product List | Glossary On
Versions: 1 2 3 4 5 6 7 8 9 10 11 12 13 14 15 16 17 18 19 20 21 22 23 24 25 26 27 28 29 30 31 32 33 34 35 36 37 38 39 40 41 42 43 44 45 46 47 48 49 50
000
ASUS43 KFSD 271410
RWRSD

WEATHER ROUNDUP FOR SOUTH DAKOTA
NATIONAL WEATHER SERVICE SIOUX FALLS SD
900 AM CDT SUN MAY 27 2018

NOTE: "FAIR" INDICATES FEW OR NO CLOUDS BELOW 12,000 FEET WITH NO
SIGNIFICANT WEATHER AND/OR OBSTRUCTIONS TO VISIBILITY.


SDZ001>005-009-010-012>017-271500-
NORTHWEST AND NORTH CENTRAL SOUTH DAKOTA

CITY           SKY/WX    TMP DP  RH WIND       PRES   REMARKS
BUFFALO          N/A     65  53  65 N10       29.85R
FAITH            N/A     68  57  68 NE20G31   29.80R
MOBRIDGE       CLOUDY    76  61  59 NE15      29.72S
$$

SDZ012>016-024>037-041>051-057-063-072>074-271500-
SOUTHWEST AND SOUTH CENTRAL SOUTH DAKOTA

CITY           SKY/WX    TMP DP  RH WIND       PRES   REMARKS
RAPID CTY ARPT PTSUNNY   67  55  65 N24G36    29.85R
PIERRE         MOSUNNY   75  61  61 SE6       29.72R
CUSTER         PTSUNNY   63  49  60 NE17G30   29.96R
ELLSWORTH AFB  PTSUNNY   68  56  64 N23G37    29.85
PHILIP         MOSUNNY   73  64  73 W13       29.74R
PINE RIDGE     PTSUNNY   73  56  54 W5        29.84R
SPEARFISH      FAIR      70  54  56 VRB5      29.95S
WINNER         FAIR      76  59  55 S17       29.75S
$$

SDZ004>011-016>023-039-040-271500-
NORTHEAST SOUTH DAKOTA

CITY           SKY/WX    TMP DP  RH WIND       PRES   REMARKS
ABERDEEN       PTSUNNY   78  59  51 E12       29.78R
WATERTOWN      CLOUDY    74  58  57 NE14      29.83R
BROOKINGS      CLOUDY    76  58  53 S12       29.82F
SISSETON         N/A     70  62  76 SE12      29.81F
$$

SDZ017-020-022-023-036>040-048>070-271500-
SOUTHEAST SOUTH DAKOTA

CITY           SKY/WX    TMP DP  RH WIND       PRES   REMARKS
SIOUX FALLS    CLOUDY    80  63  55 S6        29.82R
HURON          CLOUDY    76  60  57 S13       29.75F
CHAMBERLAIN    CLOUDY    80  62  55 SW9       29.76R
MITCHELL       PTSUNNY   77  63  61 S7        29.78S
YANKTON        SUNNY     75  63  66 CALM      29.82R
$$

ABBREVIATIONS USED IN REMARKS
   TC - TEMPERATURE IN CELSIUS
  WCI - WIND CHILL INDEX
   HX - HEAT INDEX
  VSB - VISIBILITY




USA.gov is the U.S. government's official web portal to all federal, state and local government web resources and services.